Simultaneous Nadir Overpasses (SNOs) Predictions

Prediction of SNOs near equator between AQUA and NPP Satellite Orbit:

Table of predicted SNOs near equator for the next 14.0 days since TLE Epoch: 11/26/2017
Index Date (AQUA) Time (AQUA) AQUA Lat,Lon Date (NPP) Time (NPP) NPP Lat,Lon Distance(km) Time Diff (sec)
1 11/27/2017 00:08:35 -3.66, 21.20 11/26/2017 23:59:18 -3.57, 20.91 33.28 557
2 11/27/2017 00:56:49 -0.97,-170.20 11/27/2017 00:48:48 -1.10,-170.75 63.50 481
3 11/27/2017 01:44:57 5.47, -1.58 11/27/2017 01:38:11 5.65, -2.40 93.10 406
4 11/29/2017 15:40:27 20.88, -34.38 11/29/2017 15:30:27 20.91, -34.68 30.84 600
5 11/29/2017 16:24:40 -2.18, 137.39 11/29/2017 16:15:47 -2.08, 137.01 43.57 533
6 11/29/2017 17:12:54 -2.45, -54.00 11/29/2017 17:05:17 -2.59, -54.65 73.77 457
7 12/02/2017 07:52:36 5.22, 84.97 12/02/2017 07:42:52 5.15, 84.77 24.05 584
8 12/02/2017 08:40:44 -0.71,-106.41 12/02/2017 08:32:15 -0.59,-106.88 53.97 509
9 12/02/2017 09:28:59 -3.85, 62.18 12/02/2017 09:21:46 -4.02, 61.44 84.10 433
10 12/05/2017 00:08:41 3.77,-158.84 12/04/2017 23:59:22 3.72,-159.14 34.45 559
11 12/05/2017 00:56:49 0.74, 9.78 12/05/2017 00:48:44 0.89, 9.22 64.45 485
12 12/05/2017 01:45:04 -5.30, 178.37 12/05/2017 01:38:15 -5.50, 177.55 94.34 409
13 12/07/2017 15:42:27 -28.31, 143.83 12/07/2017 15:32:27 -28.34, 143.43 38.83 600
14 12/07/2017 16:24:45 2.27, -42.63 12/07/2017 16:15:50 2.19, -43.03 44.86 535
15 12/07/2017 17:12:53 2.25, 125.98 12/07/2017 17:05:13 2.38, 125.32 74.82 460




NCC Satellite Simultaneous Nadir Overpasses (SNOs) Prediction Service
